SDM601 UUWW-USPP

Flight info

Callsign SDM601
Flight time 1h 41m
Altitude 37000
Route OLMUN3D OLMUN T629 IPSIL T830 LAMGU N604 OGSIN P983 SUMOM SUMOM1F
Aircraft A320/M-SDE3FGHIRWY/LB1

Departure

Time 2026-05-05 11:17
Airport Vnukovo International Airport (UUWW)

Arrival

Time 2026-05-05 12:59
Airport Perm International Airport (USPP)
Time Latitude Longitude Altitude Speed Heading
2026-05-05 11:04 55.60039 37.27926 678 ft 0 kts 24°
2026-05-05 11:13 55.60075 37.27985 680 ft 13 kts 71°
2026-05-05 11:14 55.60074 37.28138 680 ft 12 kts 91°
2026-05-05 11:14 55.60082 37.28279 679 ft 13 kts 84°
2026-05-05 11:14 55.60096 37.28422 679 ft 11 kts 67°
2026-05-05 11:14 55.60168 37.28574 679 ft 21 kts 46°
2026-05-05 11:15 55.60195 37.28731 678 ft 8 kts 132°
2026-05-05 11:15 55.60161 37.28799 679 ft 7 kts 133°
2026-05-05 11:15 55.60093 37.28880 679 ft 22 kts 158°
2026-05-05 11:15 55.59951 37.28938 685 ft 20 kts 165°
2026-05-05 11:16 55.59934 37.28946 684 ft 0 kts 165°
2026-05-05 11:16 55.59929 37.28948 684 ft 5 kts 165°
2026-05-05 11:16 55.59801 37.28968 692 ft 18 kts 213°
2026-05-05 11:16 55.59778 37.28912 686 ft 1 kts 246°
2026-05-05 11:17 55.59719 37.28666 684 ft 58 kts 248°
2026-05-05 11:17 55.59486 37.27612 673 ft 124 kts 248°
2026-05-05 11:17 55.59101 37.25858 821 ft 160 kts 250°
2026-05-05 11:17 55.58676 37.24069 1529 ft 160 kts 240°
2026-05-05 11:18 55.58015 37.22491 2321 ft 159 kts 234°
2026-05-05 11:18 55.57344 37.20818 2798 ft 177 kts 237°
2026-05-05 11:18 55.56612 37.18916 3142 ft 198 kts 237°
2026-05-05 11:18 55.55782 37.16836 3680 ft 212 kts 236°
2026-05-05 11:19 55.55006 37.14574 4413 ft 218 kts 251°
2026-05-05 11:19 55.54814 37.11901 5244 ft 222 kts 267°
2026-05-05 11:19 55.54800 37.09174 6180 ft 221 kts 267°
2026-05-05 11:19 55.54805 37.06442 6668 ft 223 kts 270°
2026-05-05 11:20 55.55289 37.03890 6834 ft 229 kts 305°
2026-05-05 11:20 55.56666 37.02339 6864 ft 250 kts 339°
2026-05-05 11:20 55.58426 37.01914 6866 ft 260 kts 353°
2026-05-05 11:20 55.60248 37.01971 6869 ft 263 kts 356°
2026-05-05 11:21 55.62066 37.02514 6856 ft 272 kts 20°
2026-05-05 11:21 55.63552 37.04635 6865 ft 283 kts 52°
2026-05-05 11:21 55.64278 37.07991 6867 ft 303 kts 84°
2026-05-05 11:21 55.64411 37.11763 6861 ft 308 kts 90°
2026-05-05 11:22 55.64421 37.15580 6866 ft 310 kts 92°
2026-05-05 11:22 55.64326 37.19382 6862 ft 308 kts 101°
2026-05-05 11:22 55.63752 37.23014 7074 ft 308 kts 115°
2026-05-05 11:22 55.63020 37.26590 7696 ft 310 kts 112°
2026-05-05 11:23 55.62343 37.30181 7844 ft 307 kts 111°
2026-05-05 11:23 55.61695 37.33775 7866 ft 306 kts 111°
2026-05-05 11:23 55.61059 37.37365 7865 ft 305 kts 110°
2026-05-05 11:23 55.60422 37.40945 7864 ft 306 kts 111°
2026-05-05 11:24 55.59783 37.44486 7866 ft 306 kts 111°
2026-05-05 11:24 55.59130 37.48070 7864 ft 306 kts 111°
2026-05-05 11:24 55.58476 37.51640 7860 ft 305 kts 111°
2026-05-05 11:24 55.57819 37.55216 7860 ft 305 kts 111°
2026-05-05 11:25 55.57356 37.58878 7864 ft 308 kts 96°
2026-05-05 11:25 55.57491 37.62671 7877 ft 311 kts 77°
2026-05-05 11:25 55.58278 37.66271 8523 ft 317 kts 59°
2026-05-05 11:25 55.59379 37.69661 8801 ft 317 kts 58°
2026-05-05 11:26 55.60477 37.73018 8859 ft 315 kts 58°
2026-05-05 11:26 55.61574 37.76359 8862 ft 314 kts 58°
2026-05-05 11:26 55.62674 37.79702 8863 ft 314 kts 58°
2026-05-05 11:26 55.63730 37.83090 8863 ft 315 kts 66°
2026-05-05 11:27 55.64361 37.86798 8864 ft 315 kts 82°
2026-05-05 11:27 55.64422 37.90679 9191 ft 318 kts 99°
2026-05-05 11:27 55.63996 37.94490 10170 ft 315 kts 105°
2026-05-05 11:27 55.63513 37.98297 11032 ft 318 kts 105°
2026-05-05 11:28 55.63038 38.02085 11821 ft 321 kts 105°
2026-05-05 11:28 55.62547 38.05969 12563 ft 326 kts 105°
2026-05-05 11:28 55.62048 38.09898 12811 ft 327 kts 105°
2026-05-05 11:28 55.61547 38.13834 12866 ft 327 kts 105°
2026-05-05 11:29 55.61039 38.17812 12914 ft 341 kts 105°
2026-05-05 11:29 55.60507 38.21980 13485 ft 352 kts 105°
2026-05-05 11:29 55.59965 38.26230 13794 ft 356 kts 105°
2026-05-05 11:29 55.59420 38.30505 13860 ft 356 kts 105°
2026-05-05 11:30 55.58875 38.34777 13863 ft 356 kts 105°
2026-05-05 11:30 55.58356 38.39055 13863 ft 357 kts 100°
2026-05-05 11:30 55.58254 38.43449 13863 ft 359 kts 86°
2026-05-05 11:30 55.58720 38.47788 13951 ft 362 kts 71°
2026-05-05 11:31 55.59730 38.51808 14658 ft 363 kts 59°
2026-05-05 11:31 55.61009 38.55680 15377 ft 366 kts 58°
2026-05-05 11:31 55.62296 38.59585 15734 ft 367 kts 58°
2026-05-05 11:31 55.63580 38.63482 15913 ft 368 kts 58°
2026-05-05 11:32 55.64874 38.67410 16569 ft 370 kts 58°
2026-05-05 11:32 55.66173 38.71352 16809 ft 371 kts 58°
2026-05-05 11:32 55.67472 38.75305 16853 ft 372 kts 58°
2026-05-05 11:32 55.68776 38.79269 16855 ft 371 kts 58°
2026-05-05 11:33 55.70073 38.83218 16853 ft 371 kts 58°
2026-05-05 11:33 55.71374 38.87181 16854 ft 371 kts 58°
2026-05-05 11:33 55.72675 38.91131 16848 ft 371 kts 57°
2026-05-05 11:33 55.74195 38.94804 16890 ft 370 kts 45°
2026-05-05 11:34 55.75977 38.98133 17574 ft 372 kts 44°
2026-05-05 11:34 55.77769 39.01489 18271 ft 375 kts 44°
2026-05-05 11:34 55.79564 39.04875 18865 ft 378 kts 44°
2026-05-05 11:34 55.81347 39.08255 19436 ft 381 kts 44°
2026-05-05 11:35 55.83191 39.11758 20033 ft 385 kts 44°
2026-05-05 11:35 55.85010 39.15211 20567 ft 389 kts 44°
2026-05-05 11:35 55.86896 39.18788 20758 ft 404 kts 44°
2026-05-05 11:35 55.88847 39.22506 21063 ft 415 kts 44°
2026-05-05 11:36 55.90823 39.26295 21556 ft 420 kts 45°
2026-05-05 11:36 55.92822 39.30124 22105 ft 423 kts 44°
2026-05-05 11:36 55.94891 39.33873 22648 ft 426 kts 41°
2026-05-05 11:36 55.97045 39.37529 23173 ft 429 kts 40°
2026-05-05 11:37 55.99253 39.41134 23647 ft 432 kts 39°
2026-05-05 11:37 56.01491 39.44739 24076 ft 434 kts 39°
2026-05-05 11:37 56.03739 39.48378 24510 ft 437 kts 39°
2026-05-05 11:37 56.05993 39.52075 24879 ft 441 kts 40°
2026-05-05 11:38 56.08083 39.56149 25266 ft 448 kts 50°
2026-05-05 11:38 56.09841 39.60798 25645 ft 452 kts 56°
2026-05-05 11:38 56.11526 39.65565 26036 ft 454 kts 56°
2026-05-05 11:38 56.13233 39.70361 26429 ft 457 kts 55°
2026-05-05 11:39 56.14953 39.75174 26817 ft 459 kts 55°
2026-05-05 11:39 56.16683 39.80009 27189 ft 462 kts 55°
2026-05-05 11:39 56.18421 39.84869 27542 ft 464 kts 55°
2026-05-05 11:39 56.20172 39.89771 27912 ft 467 kts 55°
2026-05-05 11:40 56.21923 39.94693 28266 ft 470 kts 55°
2026-05-05 11:40 56.23689 39.99670 28590 ft 473 kts 55°
2026-05-05 11:40 56.25455 40.04666 28921 ft 475 kts 56°
2026-05-05 11:40 56.26631 40.07999 29140 ft 477 kts 56°
2026-05-05 11:41 56.28410 40.13049 29459 ft 479 kts 56°
2026-05-05 11:41 56.30198 40.18128 29790 ft 481 kts 56°
2026-05-05 11:41 56.32577 40.24909 30125 ft 484 kts 56°
2026-05-05 11:41 56.34377 40.30046 30371 ft 486 kts 56°
2026-05-05 11:42 56.35598 40.33535 30530 ft 487 kts 56°
2026-05-05 11:42 56.37409 40.38727 30768 ft 490 kts 56°
2026-05-05 11:42 56.39203 40.43890 30953 ft 492 kts 56°
2026-05-05 11:42 56.41027 40.49147 31217 ft 493 kts 56°
2026-05-05 11:43 56.42846 40.54403 31524 ft 493 kts 56°
2026-05-05 11:43 56.44638 40.59675 31825 ft 493 kts 59°
2026-05-05 11:43 56.46131 40.65272 32113 ft 495 kts 68°
2026-05-05 11:43 56.47208 40.71199 32408 ft 496 kts 74°
2026-05-05 11:44 56.48122 40.77227 32714 ft 496 kts 74°
2026-05-05 11:44 56.49027 40.83256 33023 ft 495 kts 75°
2026-05-05 11:44 56.49925 40.89268 33334 ft 495 kts 75°
2026-05-05 11:44 56.50820 40.95280 33643 ft 495 kts 75°
2026-05-05 11:45 56.51714 41.01302 33906 ft 495 kts 75°
2026-05-05 11:45 56.52606 41.07315 34161 ft 495 kts 75°
2026-05-05 11:45 56.53500 41.13349 34443 ft 494 kts 75°
2026-05-05 11:45 56.54385 41.19349 34727 ft 493 kts 75°
2026-05-05 11:46 56.55254 41.25282 35014 ft 492 kts 75°
2026-05-05 11:46 56.56130 41.31272 35276 ft 491 kts 75°
2026-05-05 11:46 56.57005 41.37255 35532 ft 490 kts 75°
2026-05-05 11:46 56.57874 41.43222 35790 ft 489 kts 75°
2026-05-05 11:47 56.58735 41.49189 36029 ft 488 kts 75°
2026-05-05 11:47 56.59589 41.55148 36277 ft 487 kts 75°
2026-05-05 11:47 56.60439 41.61104 36521 ft 486 kts 75°
2026-05-05 11:47 56.61289 41.67056 36727 ft 486 kts 75°
2026-05-05 11:48 56.62989 41.78941 36793 ft 485 kts 75°
2026-05-05 11:48 56.64653 41.90721 36788 ft 484 kts 76°
2026-05-05 11:49 56.66321 42.02637 36790 ft 482 kts 76°
2026-05-05 11:49 56.67956 42.14472 36785 ft 481 kts 76°
2026-05-05 11:50 56.69568 42.26219 36801 ft 481 kts 76°
2026-05-05 11:50 56.71191 42.38051 36789 ft 482 kts 76°
2026-05-05 11:51 56.72801 42.49897 36781 ft 482 kts 76°
2026-05-05 11:51 56.74448 42.61762 36786 ft 483 kts 74°
2026-05-05 11:52 56.76373 42.73477 36784 ft 483 kts 72°
2026-05-05 11:52 56.78389 42.85166 36783 ft 483 kts 72°
2026-05-05 11:53 56.80327 42.96920 36778 ft 483 kts 73°
2026-05-05 11:53 56.82187 43.08624 36773 ft 483 kts 73°
2026-05-05 11:54 56.84048 43.20425 36769 ft 483 kts 73°
2026-05-05 11:54 56.85911 43.32208 36778 ft 482 kts 73°
2026-05-05 11:55 56.87767 43.43986 36780 ft 482 kts 73°
2026-05-05 11:55 56.89606 43.55781 36785 ft 482 kts 73°
2026-05-05 11:56 56.91433 43.67589 36784 ft 482 kts 73°
2026-05-05 11:56 56.93246 43.79418 36780 ft 481 kts 74°
2026-05-05 11:57 56.95039 43.91248 36779 ft 481 kts 74°
2026-05-05 11:57 56.96823 44.02987 36780 ft 481 kts 74°
2026-05-05 11:58 56.98612 44.14829 36781 ft 481 kts 74°
2026-05-05 11:58 57.00385 44.26699 36774 ft 482 kts 74°
2026-05-05 11:59 57.02149 44.38582 36762 ft 481 kts 74°
2026-05-05 11:59 57.03888 44.50446 36774 ft 481 kts 74°
2026-05-05 12:00 57.05607 44.62227 36771 ft 480 kts 74°
2026-05-05 12:00 57.07330 44.74079 36785 ft 480 kts 75°
2026-05-05 12:01 57.09038 44.85948 36777 ft 480 kts 75°
2026-05-05 12:01 57.10735 44.97826 36768 ft 480 kts 75°
2026-05-05 12:02 57.12420 45.09709 36764 ft 480 kts 75°
2026-05-05 12:02 57.14091 45.21614 36762 ft 480 kts 75°
2026-05-05 12:03 57.15755 45.33535 36765 ft 480 kts 75°
2026-05-05 12:03 57.17412 45.45464 36765 ft 481 kts 75°
2026-05-05 12:04 57.19058 45.57429 36752 ft 481 kts 75°
2026-05-05 12:04 57.20688 45.69398 36752 ft 481 kts 75°
2026-05-05 12:05 57.22308 45.81391 36755 ft 481 kts 75°
2026-05-05 12:05 57.23921 45.93396 36747 ft 481 kts 75°
2026-05-05 12:06 57.25527 46.05409 36760 ft 481 kts 75°
2026-05-05 12:06 57.27112 46.17424 36760 ft 482 kts 76°
2026-05-05 12:07 57.28676 46.29400 36745 ft 482 kts 76°
2026-05-05 12:07 57.30242 46.41457 36736 ft 482 kts 76°
2026-05-05 12:08 57.31801 46.53523 36733 ft 482 kts 76°
2026-05-05 12:08 57.33343 46.65598 36749 ft 482 kts 76°
2026-05-05 12:09 57.35007 46.77617 36755 ft 480 kts 69°
2026-05-05 12:09 57.37674 46.88931 36757 ft 479 kts 64°
2026-05-05 12:10 57.40425 47.00185 36762 ft 478 kts 64°
2026-05-05 12:10 57.43158 47.11446 36747 ft 478 kts 64°
2026-05-05 12:11 57.45873 47.22736 36754 ft 478 kts 64°
2026-05-05 12:11 57.48554 47.33995 36741 ft 478 kts 64°
2026-05-05 12:12 57.51246 47.45312 36752 ft 478 kts 64°
2026-05-05 12:12 57.53940 47.56623 36746 ft 478 kts 64°
2026-05-05 12:13 57.56625 47.67955 36745 ft 478 kts 64°
2026-05-05 12:13 57.59294 47.79308 36760 ft 478 kts 65°
2026-05-05 12:14 57.61953 47.90693 36752 ft 478 kts 65°
2026-05-05 12:14 57.64603 48.02089 36746 ft 479 kts 65°
2026-05-05 12:15 57.67244 48.13506 36746 ft 479 kts 65°
2026-05-05 12:15 57.69873 48.24905 36746 ft 479 kts 65°
2026-05-05 12:16 57.72493 48.36351 36771 ft 479 kts 65°
2026-05-05 12:16 57.74840 48.47950 36760 ft 481 kts 75°
2026-05-05 12:17 57.75862 48.60337 36754 ft 481 kts 82°
2026-05-05 12:17 57.76748 48.72764 36746 ft 481 kts 82°
2026-05-05 12:18 57.77645 48.85181 36782 ft 480 kts 82°
2026-05-05 12:18 57.78517 48.97596 36780 ft 480 kts 82°
2026-05-05 12:19 57.79360 49.09992 36798 ft 480 kts 82°
2026-05-05 12:19 57.80183 49.22406 36784 ft 480 kts 82°
2026-05-05 12:20 57.81005 49.34811 36789 ft 480 kts 82°
2026-05-05 12:20 57.81687 49.45220 36787 ft 480 kts 83°
2026-05-05 12:21 57.82483 49.57566 36781 ft 480 kts 83°
2026-05-05 12:21 57.83276 49.69986 36782 ft 480 kts 83°
2026-05-05 12:22 57.84058 49.82426 36784 ft 479 kts 83°
2026-05-05 12:22 57.84812 49.94832 36798 ft 478 kts 83°
2026-05-05 12:23 57.85554 50.07238 36796 ft 478 kts 83°
2026-05-05 12:23 57.86302 50.19628 36807 ft 477 kts 83°
2026-05-05 12:24 57.87037 50.32029 36799 ft 477 kts 83°
2026-05-05 12:24 57.87752 50.44412 36822 ft 477 kts 83°
2026-05-05 12:25 57.88452 50.56807 36802 ft 477 kts 83°
2026-05-05 12:25 57.89147 50.69202 36814 ft 477 kts 83°
2026-05-05 12:26 57.89833 50.81594 36798 ft 477 kts 84°
2026-05-05 12:26 57.90507 50.93991 36789 ft 476 kts 84°
2026-05-05 12:27 57.91163 51.06393 36804 ft 476 kts 84°
2026-05-05 12:27 57.91806 51.18777 36813 ft 476 kts 84°
2026-05-05 12:28 57.92438 51.31169 36808 ft 475 kts 84°
2026-05-05 12:28 57.93053 51.43565 36814 ft 475 kts 84°
2026-05-05 12:29 57.93668 51.55965 36810 ft 475 kts 84°
2026-05-05 12:29 57.94275 51.68272 36820 ft 475 kts 84°
2026-05-05 12:30 57.94867 51.80737 36802 ft 475 kts 84°
2026-05-05 12:30 57.95444 51.93127 36817 ft 475 kts 84°
2026-05-05 12:31 57.96012 52.05521 36791 ft 475 kts 85°
2026-05-05 12:31 57.96564 52.17821 36806 ft 474 kts 85°
2026-05-05 12:32 57.97111 52.30196 36811 ft 474 kts 85°
2026-05-05 12:32 57.97640 52.42565 36806 ft 473 kts 85°
2026-05-05 12:33 57.98164 52.54923 36813 ft 473 kts 85°
2026-05-05 12:33 57.98674 52.67296 36805 ft 473 kts 85°
2026-05-05 12:34 57.98926 52.73489 36550 ft 473 kts 85°
2026-05-05 12:34 57.99177 52.79684 36287 ft 473 kts 85°
2026-05-05 12:34 57.99424 52.85863 36029 ft 473 kts 85°
2026-05-05 12:34 57.99663 52.92064 35773 ft 473 kts 85°
2026-05-05 12:35 57.99898 52.98263 35522 ft 473 kts 85°
2026-05-05 12:35 58.00124 53.04379 35275 ft 473 kts 85°
2026-05-05 12:35 58.00350 53.10579 35037 ft 474 kts 85°
2026-05-05 12:35 58.00578 53.16808 34254 ft 477 kts 85°
2026-05-05 12:36 58.00809 53.23083 33247 ft 481 kts 85°
2026-05-05 12:36 58.01038 53.29368 32438 ft 479 kts 85°
2026-05-05 12:36 58.01261 53.35594 31841 ft 473 kts 85°
2026-05-05 12:36 58.01476 53.41752 31187 ft 469 kts 85°
2026-05-05 12:37 58.01682 53.47870 30547 ft 466 kts 85°
2026-05-05 12:37 58.01884 53.53925 29910 ft 463 kts 85°
2026-05-05 12:37 58.02087 53.59969 29223 ft 459 kts 85°
2026-05-05 12:37 58.02287 53.65939 28608 ft 454 kts 85°
2026-05-05 12:38 58.02480 53.71873 27993 ft 450 kts 85°
2026-05-05 12:38 58.02666 53.77743 27394 ft 446 kts 85°
2026-05-05 12:38 58.02845 53.83505 26803 ft 443 kts 86°
2026-05-05 12:38 58.03020 53.89284 26222 ft 439 kts 86°
2026-05-05 12:39 58.03192 53.95026 25681 ft 435 kts 86°
2026-05-05 12:39 58.03363 54.00702 25154 ft 432 kts 86°
2026-05-05 12:39 58.03535 54.06345 24643 ft 428 kts 86°
2026-05-05 12:39 58.03705 54.11939 24132 ft 425 kts 85°
2026-05-05 12:40 58.03875 54.17492 23632 ft 422 kts 85°
2026-05-05 12:40 58.04040 54.23004 23096 ft 419 kts 86°
2026-05-05 12:40 58.04199 54.28493 22600 ft 415 kts 86°
2026-05-05 12:40 58.04350 54.33914 22119 ft 411 kts 86°
2026-05-05 12:41 58.04493 54.39190 21801 ft 403 kts 86°
2026-05-05 12:41 58.04633 54.44440 21335 ft 399 kts 86°
2026-05-05 12:41 58.04773 54.49641 20846 ft 396 kts 86°
2026-05-05 12:41 58.04910 54.54828 20363 ft 394 kts 86°
2026-05-05 12:42 58.05043 54.59984 19864 ft 392 kts 86°
2026-05-05 12:42 58.05174 54.65118 19376 ft 390 kts 86°
2026-05-05 12:42 58.05304 54.70249 18884 ft 389 kts 86°
2026-05-05 12:42 58.05433 54.75340 18393 ft 388 kts 86°
2026-05-05 12:43 58.05750 54.80381 17871 ft 386 kts 76°
2026-05-05 12:43 58.06349 54.85310 17365 ft 383 kts 76°
2026-05-05 12:43 58.06937 54.90191 16886 ft 379 kts 76°
2026-05-05 12:43 58.07514 54.95041 16414 ft 377 kts 76°
2026-05-05 12:44 58.08082 54.99863 15945 ft 374 kts 76°
2026-05-05 12:44 58.08642 55.04647 15480 ft 372 kts 76°
2026-05-05 12:44 58.09204 55.09420 15012 ft 370 kts 76°
2026-05-05 12:44 58.09756 55.14098 14565 ft 368 kts 76°
2026-05-05 12:45 58.10310 55.18813 14099 ft 366 kts 76°
2026-05-05 12:45 58.10858 55.23511 13637 ft 365 kts 76°
2026-05-05 12:45 58.11401 55.28189 13129 ft 363 kts 76°
2026-05-05 12:45 58.11945 55.32894 12643 ft 360 kts 76°
2026-05-05 12:46 58.12478 55.37494 12186 ft 356 kts 76°
2026-05-05 12:46 58.13001 55.42006 11714 ft 354 kts 76°
2026-05-05 12:46 58.13520 55.46530 11250 ft 350 kts 76°
2026-05-05 12:46 58.14030 55.51024 10776 ft 347 kts 76°
2026-05-05 12:47 58.14534 55.55480 10318 ft 345 kts 76°
2026-05-05 12:47 58.15028 55.59842 10172 ft 332 kts 76°
2026-05-05 12:47 58.15319 55.64091 10047 ft 321 kts 88°
2026-05-05 12:47 58.15229 55.68258 9857 ft 312 kts 92°
2026-05-05 12:48 58.15114 55.72366 9370 ft 314 kts 92°
2026-05-05 12:48 58.15001 55.76444 9080 ft 308 kts 92°
2026-05-05 12:48 58.14885 55.80452 8786 ft 302 kts 92°
2026-05-05 12:48 58.14770 55.84386 8528 ft 295 kts 93°
2026-05-05 12:49 58.14662 55.88188 8398 ft 284 kts 92°
2026-05-05 12:49 58.14559 55.91846 8264 ft 272 kts 92°
2026-05-05 12:49 58.14461 55.95363 8143 ft 261 kts 92°
2026-05-05 12:49 58.14366 55.98725 8007 ft 251 kts 93°
2026-05-05 12:50 58.14272 56.01947 7743 ft 246 kts 93°
2026-05-05 12:50 58.14175 56.05178 7434 ft 245 kts 93°
2026-05-05 12:50 58.14078 56.08382 7121 ft 243 kts 93°
2026-05-05 12:50 58.13981 56.11571 6811 ft 242 kts 94°
2026-05-05 12:51 58.13884 56.14732 6574 ft 238 kts 96°
2026-05-05 12:51 58.13524 56.17704 6440 ft 226 kts 115°
2026-05-05 12:51 58.12753 56.20195 6311 ft 215 kts 133°
2026-05-05 12:51 58.11730 56.22159 6164 ft 202 kts 140°
2026-05-05 12:52 58.10761 56.23919 6034 ft 185 kts 140°
2026-05-05 12:52 58.09873 56.25535 5896 ft 170 kts 141°
2026-05-05 12:52 58.09049 56.27034 5620 ft 165 kts 141°
2026-05-05 12:52 58.08185 56.28464 5164 ft 163 kts 152°
2026-05-05 12:53 58.07133 56.29259 4713 ft 169 kts 174°
2026-05-05 12:53 58.05954 56.29214 4242 ft 170 kts 196°
2026-05-05 12:53 58.04896 56.28295 3903 ft 167 kts 218°
2026-05-05 12:53 58.04062 56.26778 3647 ft 166 kts 227°
2026-05-05 12:54 58.02555 56.23822 3227 ft 141 kts 227°
2026-05-05 12:54 58.01891 56.22521 3047 ft 135 kts 227°
2026-05-05 12:54 58.01248 56.21259 2871 ft 133 kts 227°
2026-05-05 12:55 58.00608 56.20006 2697 ft 132 kts 228°
2026-05-05 12:55 57.99971 56.18759 2511 ft 132 kts 227°
2026-05-05 12:55 57.99332 56.17508 2346 ft 133 kts 227°
2026-05-05 12:55 57.98694 56.16260 2172 ft 131 kts 227°
2026-05-05 12:56 57.98061 56.15023 2001 ft 131 kts 227°
2026-05-05 12:56 57.97434 56.13797 1863 ft 130 kts 227°
2026-05-05 12:56 57.96803 56.12582 1746 ft 130 kts 227°
2026-05-05 12:56 57.96179 56.11349 1548 ft 130 kts 228°
2026-05-05 12:57 57.95564 56.10107 1304 ft 131 kts 227°
2026-05-05 12:57 57.94934 56.08871 1126 ft 131 kts 226°
2026-05-05 12:57 57.94259 56.07610 1025 ft 135 kts 225°
2026-05-05 12:57 57.93619 56.06341 784 ft 132 kts 227°
2026-05-05 12:58 57.92982 56.05137 603 ft 135 kts 229°
2026-05-05 12:58 57.92336 56.03854 433 ft 134 kts 227°
2026-05-05 12:58 57.91932 56.03061 401 ft 117 kts 226°
2026-05-05 12:58 57.91520 56.02266 398 ft 60 kts 227°
2026-05-05 12:59 57.91297 56.01808 398 ft 43 kts 227°
2026-05-05 12:59 57.91238 56.01624 397 ft 6 kts 226°
2026-05-05 12:59 57.91211 56.01681 399 ft 5 kts 82°
2026-05-05 13:00 57.91347 56.01942 399 ft 33 kts 44°
2026-05-05 13:00 57.91549 56.02315 397 ft 37 kts 45°
2026-05-05 13:01 57.91868 56.02186 397 ft 7 kts 13°
2026-05-05 13:01 57.91913 56.02179 397 ft 6 kts 336°
2026-05-05 13:01 57.91934 56.02149 396 ft 0 kts 317°